Flag for U.S.A. Weather past 2 weeks in Toledo, Ohio, U.S.A.

Now
45 °F

More clouds than sun.


Feels Like: 39 °F
Forecast: 40 / 49 °F
Wind: 10 mph from East

Location: Toledo Suburban Airport

Current Time: Apr 25, 2015 at 1:01:41 PM

Latest Report: Apr 25, 2015 at 12:34 PM


Visibility: 10 mi

Pressure: 29.87 "Hg

Humidity: 71%

Dew point: 36 °F

Location of ToledoLocation

Historic Weather in Toledo — Graph

°F

Toledo temperature yesterday

Maximum temperature yesterday: 59 °F (at 3:54 PM)
Minimum temperature yesterday: 28 °F (at 2:34 AM)
Average temperature yesterday: 43 °F

Past Weeks' High & Low Weather Summary

 TemperatureHumidityPressure
High77 °F (Apr 17, 4:55 PM)94% (Apr 17, 12:54 AM)30.38 "Hg (Apr 17, 12:54 AM)
Low28 °F (Apr 24, 2:34 AM)15% (Apr 18, 8:15 PM)29.26 "Hg (Apr 20, 3:54 AM)
Average51 °F60%29.98 "Hg
* Reported Apr 10 11:14 AM — Apr 25 11:55 AM, Toledo, Weather by CustomWeather, © 2015

Note: Actual official high and low records may vary slightly from our data, if they occured in-between our weather recording intervals... More about our weather records

Advertising

Toledo weather history for previous 24 hours

 ConditionsComfort  
Time TempWeatherWind HumidityBarometerVisibility
11:55 AM
Sat, Apr 25
45 °FMore clouds than sun.10 mph71%29.87 "Hg10 mi
11:34 AM45 °FMore clouds than sun.8 mph76%29.88 "Hg10 mi
11:14 AM45 °FMore clouds than sun.13 mph71%29.89 "Hg10 mi
10:55 AM45 °FMostly cloudy.14 mph76%29.89 "Hg10 mi
10:34 AM45 °FMostly cloudy.10 mph76%29.90 "Hg10 mi
10:14 AM45 °FMore clouds than sun.9 mph76%29.91 "Hg10 mi
9:54 AM45 °FMostly cloudy.7 mph76%29.92 "Hg10 mi
9:34 AM45 °FMore clouds than sun.9 mph76%29.91 "Hg10 mi
9:15 AM45 °FOvercast.9 mph76%29.91 "Hg10 mi
8:54 AM45 °FOvercast.7 mph76%29.92 "Hg10 mi
8:34 AM45 °FOvercast.8 mph76%29.92 "Hg10 mi
8:15 AM45 °FOvercast.6 mph81%29.91 "Hg10 mi
7:55 AM43 °FOvercast.5 mph87%29.91 "Hg10 mi
7:34 AM43 °FOvercast.3 mph87%29.90 "Hg10 mi
7:14 AM43 °FOvercast.3 mph81%29.90 "Hg10 mi
6:54 AM43 °FOvercast.5 mph81%29.90 "Hg10 mi
6:34 AM43 °FOvercast.6 mph81%29.91 "Hg10 mi
6:15 AM43 °FMostly cloudy.3 mph81%29.92 "Hg10 mi
5:54 AM43 °FOvercast.5 mph81%29.92 "Hg10 mi
5:34 AM41 °FMostly cloudy.6 mph87%29.93 "Hg10 mi
5:15 AM41 °FMostly cloudy.5 mph87%29.95 "Hg7 mi
4:54 AM41 °FFog.5 mph87%29.95 "Hg5 mi
4:34 AM41 °FRain. Overcast.No wind87%29.97 "Hg5 mi
4:14 AM41 °FDrizzle. Mostly cloudy.No wind87%29.98 "Hg7 mi
3:55 AM41 °FDrizzle. Mostly cloudy.3 mph87%29.99 "Hg7 mi
3:34 AM41 °FLight rain. Mostly cloudy.3 mph87%29.99 "Hg7 mi
3:14 AM41 °FLight rain. Mostly cloudy.3 mph81%29.98 "Hg7 mi
2:55 AM43 °FRain. Mostly cloudy.5 mph76%29.99 "Hg7 mi
2:34 AM45 °FOvercast.6 mph66%30.00 "Hg10 mi
2:15 AM45 °FMostly cloudy.6 mph66%30.00 "Hg10 mi
1:54 AM45 °FDrizzle. Mostly cloudy.8 mph66%29.99 "Hg10 mi
1:34 AM46 °FDrizzle. Mostly cloudy.7 mph57%30.00 "Hg10 mi
1:14 AM46 °FOvercast.6 mph57%30.00 "Hg10 mi
12:55 AM46 °FMostly cloudy.3 mph57%30.00 "Hg10 mi
12:34 AM46 °FOvercast.6 mph57%30.00 "Hg10 mi
12:14 AM46 °FLight rain. Overcast.7 mph66%30.00 "Hg10 mi
11:34 PM
Fri, Apr 24
46 °FOvercast.8 mph66%29.99 "Hg10 mi
11:15 PM46 °FOvercast.6 mph71%29.97 "Hg10 mi
10:54 PM46 °FMostly cloudy.6 mph71%29.98 "Hg10 mi
10:34 PM48 °FMostly cloudy.6 mph66%29.98 "Hg10 mi
10:15 PM48 °FOvercast.5 mph66%29.98 "Hg10 mi
9:54 PM48 °FOvercast.5 mph62%29.98 "Hg10 mi
8:55 PM50 °FScattered clouds.3 mph54%29.98 "Hg10 mi
8:34 PM50 °FSunny.3 mph54%29.98 "Hg10 mi
7:34 PM55 °FSunny.No wind24%29.97 "Hg10 mi
7:15 PM57 °FSunny.No wind25%29.97 "Hg10 mi
6:54 PM59 °FSunny.3 mph21%29.97 "Hg10 mi
6:34 PM59 °FSunny.5 mph21%29.98 "Hg10 mi
5:34 PM59 °FSunny.5 mph23%29.98 "Hg10 mi
5:14 PM59 °FSunny.No wind23%29.99 "Hg10 mi
4:54 PM59 °FSunny.5 mph23%29.99 "Hg10 mi
4:34 PM59 °FSunny.No wind21%30.00 "Hg10 mi
4:15 PM59 °FSunny.3 mph23%30.01 "Hg10 mi
3:54 PM59 °FSunny.10 mph25%30.02 "Hg10 mi
3:34 PM57 °FSunny.6 mph27%30.03 "Hg10 mi
3:15 PM57 °FSunny.9 mph29%30.03 "Hg10 mi
2:54 PM57 °FSunny.6 mph31%30.04 "Hg10 mi
2:34 PM55 °FSunny.8 mph31%30.05 "Hg10 mi
2:14 PM55 °FSunny.13 mph31%30.06 "Hg10 mi
1:55 PM55 °FSunny.9 mph31%30.07 "Hg10 mi
1:34 PM54 °FSunny.7 mph35%30.07 "Hg10 mi
1:14 PM54 °FSunny.8 mph33%30.07 "Hg10 mi
Weather by CustomWeather, © 2015

See weather overviewHow to use our weather pages